Location: Unspecified
(51.0000°N, 12.0000°E)
Time: 16:49:04
(UTC+01:00)

ISS - Pass Details

Date: 12 February 2018
Orbit: 403 x 407 km, 51.6° (Epoch: 21 February)

Event Time Altitude Azimuth Distance (km) Brightness Sun altitude
Rises 18:32:30 0° 281° (WNW) 2,322 1.6 -11.5°
Reaches altitude 10° 18:35:07 10° 259° (W) 1,459 0.5 -11.9°
Maximum altitude 18:37:13 16° 219° (SW) 1,144 -0.9 -12.2°
Drops below altitude 10° 18:39:19 10° 179° (S) 1,453 -1.0 -12.5°
Sets 18:41:55 0° 157° (SSE) 2,309 -0.2 -12.9°
